Powrót do katalogu

STARLINK-38104

AktywnyŁącznośćSSO
NORAD 100185·PAYLOAD·🇺🇸 United States

Wystrzelony Aug 1, 2026 z Vandenberg Space Force Base

Loading…

Następne Przeloty (najbliższe 24 godziny)

TLE

ŚwieżeSource: Space-Track

Epoka: Sep 14, 2026, 12:31 UTC

1 A0185U 26175G   26257.52172703  .00262320  00000-0  16991-2 0  9997
2 A0185  97.2820  99.6376 0001803 115.3338 244.8114 15.75284479  8239

Śledź STARLINK-38104 w czasie rzeczywistym z AllMySat

Download on the App Store